[[[{"header":{"parameterUnit":"kt","parameterCategory":2,"dx":1,"dy":1,"la1":30.253999710083008,"la2":30.299108505249023,"lo1":-89.0895004272461,"lo2":-89.04439544677734,"nx":28,"ny":28,"refTime":"2022-09-21T09:00:00:Z","depth":"0","parameterNumber":2,"parameterNumberName":"U-component_of_CURRENTS"},"data":[0.1163,0.114,0.1174,0.1208,0.1261,0.1284,0.1306,0.1355,0.1472,0.1678,0.19,0.2111,0.2685,0.3447,0.391,0.3993,0.3786,0.3849,0.3653,0.3817,0.3789,0.3762,0.3749,0.4022,0.4021,0.3504,0.35,0.3498,0.1258,0.1262,0.1272,0.1328,0.136,0.1403,0.1465,0.1509,0.1599,0.1759,0.1907,0.2343,0.2793,0.3246,0.3733,0.3859,0.3803,0.3876,0.3709,0.3602,0.3764,0.3762,0.4042,0.4042,0.4042,0.4042,0.4042,0.4042,0.1379,0.136,0.1408,0.1435,0.1464,0.1498,0.1529,0.1623,0.1713,0.1861,0.2033,0.2241,0.2707,0.3124,0.3321,0.3665,0.3408,0.3662,0.357,0.3432,0.3335,0.3459,0.3694,0.3692,0.3691,0.369,0.3689,0,0.1489,0.154,0.1538,0.1564,0.158,0.1617,0.1681,0.1729,0.1875,0.1974,0.2129,0.2257,0.2609,0.2864,0.3128,0.3245,0.319,0.3314,0.3312,0.3331,0.3204,0.3101,0.3135,0.337,0.3367,0.3364,0.3362,0.3361,0.1637,0.1639,0.1682,0.1676,0.1673,0.1735,0.1751,0.1868,0.1918,0.2113,0.2138,0.2326,0.246,0.2739,0.2902,0.3072,0.2967,0.3233,0.3165,0.3179,0.309,0.2947,0.2856,0.3326,0.333,0.3334,0.3337,0,0.1725,0.1725,0.1717,0.1755,0.1766,0.1788,0.1883,0.1911,0.2013,0.2088,0.2116,0.2262,0.2422,0.252,0.2649,0.2719,0.2834,0.2885,0.2967,0.2982,0.3096,0.3013,0.3096,0.3013,0.306,0.3063,0.3066,0,0.1792,0.177,0.18,0.1789,0.179,0.1869,0.1905,0.1944,0.2032,0.2086,0.2169,0.2228,0.2309,0.2418,0.2476,0.2645,0.2626,0.2689,0.2695,0.2754,0.2764,0.2786,0.2705,0.2619,0.2618,0.2617,0.2616,0,0.1823,0.1835,0.181,0.1819,0.1865,0.1886,0.1935,0.2022,0.2052,0.2135,0.2172,0.2237,0.227,0.2348,0.2428,0.2384,0.2573,0.2502,0.2624,0.2629,0.2723,0.2732,0.2923,0.2614,0.2614,0.2613,0.2613,0,0.1838,0.1859,0.1842,0.1867,0.1873,0.1916,0.1987,0.2024,0.2114,0.213,0.2174,0.2168,0.2248,0.221,0.2336,0.2284,0.2333,0.2353,0.2358,0.2415,0.236,0.257,0.2748,0.2763,0.2394,0.2392,0.2391,0,0.1808,0.1846,0.1885,0.1904,0.191,0.1951,0.1999,0.2061,0.209,0.2122,0.2142,0.2135,0.2129,0.2098,0.2166,0.2169,0.2248,0.2164,0.2249,0.2253,0.2306,0.245,0.2545,0.2704,0.2364,0.2366,0.2368,0,0.1822,0.1859,0.1857,0.1871,0.1935,0.1945,0.2013,0.2036,0.2057,0.2076,0.208,0.2099,0.207,0.2071,0.2036,0.2091,0.2203,0.2074,0.2074,0.2133,0.2328,0.2402,0.2428,0.218,0.2183,0.2185,0.2347,0,0.1844,0.1834,0.1844,0.1933,0.1945,0.1921,0.1945,0.1974,0.1971,0.1971,0.1973,0.1957,0.1947,0.1942,0.1938,0.1995,0.1994,0.1953,0.1932,0.2008,0.2068,0.2086,0.1862,0.1861,0.186,0.1859,0,0,0.1813,0.1828,0.1873,0.1914,0.1883,0.1872,0.1866,0.1896,0.186,0.1861,0.1831,0.1829,0.1817,0.1843,0.1864,0.1861,0.1891,0.1859,0.1965,0.1976,0.1987,0.2049,0.2067,0.1856,0.1856,0.1856,0.1855,0,0.1843,0.1846,0.189,0.1886,0.1856,0.1848,0.1842,0.1794,0.1786,0.1818,0.1764,0.176,0.1778,0.1763,0.1765,0.1843,0.1822,0.1828,0.1908,0.1952,0.1966,0.1978,0.2041,0.2058,0.1852,0.1852,0.1853,0,0.1861,0.1871,0.1868,0.1844,0.1811,0.1814,0.1739,0.1708,0.172,0.1669,0.1696,0.1668,0.166,0.1691,0.1699,0.169,0.1789,0.1735,0.1742,0.1753,0.1797,0.1812,0.1826,0.1647,0.1647,0.1646,0,0,0.1903,0.1947,0.1864,0.183,0.1814,0.1757,0.173,0.1695,0.1669,0.1672,0.1646,0.1641,0.1641,0.165,0.1643,0.1703,0.1718,0.1711,0.1721,0.1729,0.1744,0.179,0.1805,0.1644,0.1644,0.1644,0,0,0.1882,0.1857,0.1835,0.1794,0.1745,0.1671,0.1657,0.1629,0.1645,0.1645,0.16,0.1594,0.1605,0.1606,0.1581,0.1624,0.1583,0.1589,0.1629,0.1641,0.1651,0.1664,0.1506,0,0,0,0,0,0.1879,0.1869,0.1851,0.1828,0.1747,0.1694,0.1688,0.1613,0.1592,0.1608,0.16,0.1552,0.1578,0.1556,0.156,0.1575,0.1616,0.1621,0.1626,0.1689,0.1701,0.1712,0,0,0,0,0,0,0.1869,0.1847,0.1848,0.1771,0.1747,0.1696,0.1635,0.1621,0.1587,0.1578,0.1562,0.1553,0.1523,0.1551,0.1556,0.157,0.1505,0.1618,0.1622,0.1626,0.1693,0.1703,0.1712,0,0,0,0,0,0.1861,0.1842,0.1723,0.1772,0.1752,0.1645,0.1635,0.1622,0.1628,0.1553,0.1544,0.1558,0.1527,0.1525,0.1554,0.1568,0.1502,0.1503,0.1621,0.1624,0.1627,0.1698,0,0,0,0,0,0,0.1854,0.1889,0.1719,0.1709,0.173,0.1647,0.1634,0.1622,0.1607,0.1592,0.1546,0.1539,0.153,0.1528,0.1528,0.1569,0.1499,0.1501,0.1502,0.1623,0.1626,0.1628,0,0,0,0,0,0,0.1894,0.1884,0.1716,0.1668,0.1655,0.165,0.1637,0.1666,0.161,0.161,0.1598,0.1543,0.1504,0.1531,0.153,0.1583,0.1497,0.1499,0.15,0.1501,0.1625,0.1627,0,0,0,0,0,0,0.1889,0.1879,0.1673,0.1662,0.1651,0.1569,0.1678,0.1603,0.1551,0.1617,0.1541,0.1536,0.1506,0.1507,0.1533,0.1586,0.1584,0.1497,0.1498,0.1499,0.15,0,0,0,0,0,0,0,0.1884,0.1962,0.1734,0.1658,0.1647,0.1617,0.1618,0.162,0.155,0.1546,0.1542,0.1538,0.1487,0.1489,0.1491,0.1589,0,0,0.1497,0.1498,0,0,0,0,0,0,0,0,0.1964,0.1962,0.1734,0.173,0.1726,0.1617,0.1618,0.162,0.155,0.1546,0.1543,0.1539,0.1488,0.1489,0.1491,0,0,0,0,0,0,0,0,0,0,0,0,0,0,0,0.1733,0.173,0,0.1618,0.1618,0.1619,0.1549,0.1546,0.1543,0.1541,0.1488,0.149,0.1491,0,0,0,0,0,0,0,0,0,0,0,0,0,0,0,0,0,0,0,0,0,0,0,0,0,0,0,0,0,0,0,0,0,0,0,0,0,0,0,0,0,0,0,0,0,0,0,0,0,0,0,0,0,0,0,0,0,0,0,0,0,0,0,0,0,0,0,0,0]}],[{"header":{"parameterUnit":"kt","parameterCategory":2,"dx":1,"dy":1,"la1":30.253999710083008,"la2":30.299108505249023,"lo1":-89.0895004272461,"lo2":-89.04439544677734,"nx":28,"ny":28,"refTime":"2022-09-21T09:00:00:Z","depth":"0","parameterNumber":3,"parameterNumberName":"V-component_of_CURRENTS"},"data":[-0.2419,-0.2269,-0.2245,-0.2167,-0.2195,-0.2116,-0.2025,-0.1806,-0.1642,-0.132,-0.1167,-0.1158,-0.1333,-0.1873,-0.2294,-0.2542,-0.2837,-0.3059,-0.3226,-0.2939,-0.2972,-0.3003,-0.2932,-0.2697,-0.2697,-0.3325,-0.3328,-0.3331,-0.2607,-0.2495,-0.2453,-0.2347,-0.2382,-0.2429,-0.2329,-0.2213,-0.199,-0.1875,-0.1796,-0.1771,-0.1984,-0.2384,-0.2757,-0.2984,-0.3307,-0.314,-0.3317,-0.335,-0.323,-0.3159,-0.2968,-0.2968,-0.2968,-0.2969,-0.2969,-0.2969,-0.2751,-0.2667,-0.2595,-0.2558,-0.256,-0.2531,-0.2449,-0.2394,-0.2263,-0.2153,-0.2312,-0.2293,-0.2568,-0.2986,-0.3278,-0.3524,-0.3744,-0.3487,-0.3518,-0.3775,-0.3751,-0.3658,-0.3628,-0.363,-0.3632,-0.3634,-0.3636,0,-0.2843,-0.2859,-0.2773,-0.2754,-0.2702,-0.2697,-0.2675,-0.2592,-0.2647,-0.2654,-0.2663,-0.272,-0.3061,-0.3199,-0.3516,-0.3711,-0.3949,-0.3899,-0.384,-0.3517,-0.3717,-0.3749,-0.3714,-0.3671,-0.3674,-0.3676,-0.3677,-0.3679,-0.2952,-0.2918,-0.2884,-0.2852,-0.2831,-0.2798,-0.2823,-0.2828,-0.2835,-0.2941,-0.2932,-0.3081,-0.3196,-0.3538,-0.379,-0.4027,-0.4059,-0.3958,-0.3904,-0.3802,-0.3833,-0.4064,-0.4073,-0.3708,-0.3704,-0.3701,-0.3699,0,-0.303,-0.3027,-0.2943,-0.2947,-0.2926,-0.2883,-0.287,-0.2911,-0.2989,-0.3017,-0.3029,-0.3218,-0.3436,-0.3659,-0.3857,-0.3994,-0.4146,-0.4141,-0.3932,-0.3931,-0.3844,-0.3855,-0.4088,-0.41,-0.4143,-0.4142,-0.4142,0,-0.3162,-0.31,-0.3103,-0.3086,-0.2999,-0.3036,-0.3009,-0.3071,-0.3134,-0.3185,-0.3372,-0.3392,-0.3611,-0.3756,-0.3917,-0.4068,-0.41,-0.407,-0.4095,-0.3931,-0.3916,-0.3836,-0.3837,-0.4119,-0.4119,-0.4118,-0.4118,0,-0.3244,-0.326,-0.316,-0.3172,-0.3189,-0.3146,-0.316,-0.3301,-0.3321,-0.3442,-0.3486,-0.3608,-0.3617,-0.3761,-0.394,-0.3938,-0.4093,-0.4107,-0.4084,-0.4083,-0.3924,-0.3908,-0.384,-0.4117,-0.4117,-0.4117,-0.4117,0,-0.335,-0.3405,-0.3337,-0.3269,-0.3276,-0.3274,-0.3293,-0.3348,-0.3513,-0.3582,-0.3636,-0.3701,-0.3765,-0.3791,-0.394,-0.3929,-0.3961,-0.4006,-0.401,-0.3972,-0.4,-0.3888,-0.3867,-0.3785,-0.4061,-0.406,-0.406,0,-0.3297,-0.339,-0.3473,-0.3422,-0.3402,-0.3511,-0.3525,-0.3647,-0.3729,-0.3764,-0.384,-0.3809,-0.3874,-0.3831,-0.3903,-0.3952,-0.397,-0.3942,-0.4013,-0.4014,-0.4011,-0.4024,-0.3839,-0.3865,-0.4052,-0.4053,-0.4053,0,-0.3317,-0.3452,-0.3483,-0.3467,-0.3647,-0.3636,-0.3711,-0.375,-0.377,-0.3909,-0.3822,-0.3863,-0.3903,-0.3872,-0.3848,-0.3896,-0.3959,-0.3924,-0.3925,-0.396,-0.4039,-0.4017,-0.402,-0.3997,-0.3997,-0.3998,-0.4048,0,-0.3385,-0.34,-0.3438,-0.3642,-0.3643,-0.3695,-0.3761,-0.3864,-0.3887,-0.3921,-0.3938,-0.3961,-0.3902,-0.3924,-0.3892,-0.3897,-0.3897,-0.3914,-0.394,-0.3942,-0.3961,-0.3966,-0.39,-0.39,-0.3899,-0.3899,0,0,-0.3333,-0.3416,-0.3577,-0.3686,-0.3626,-0.3733,-0.3721,-0.3802,-0.3838,-0.3846,-0.3872,-0.3821,-0.3876,-0.3813,-0.3814,-0.3862,-0.3877,-0.3894,-0.3929,-0.3932,-0.3935,-0.3955,-0.396,-0.3898,-0.3898,-0.3898,-0.3898,0,-0.3436,-0.3496,-0.3597,-0.3652,-0.3717,-0.3704,-0.372,-0.3732,-0.3763,-0.3828,-0.3758,-0.3787,-0.3856,-0.383,-0.381,-0.3853,-0.39,-0.3873,-0.3882,-0.3925,-0.3929,-0.3932,-0.3952,-0.3957,-0.3897,-0.3897,-0.3897,0,-0.3521,-0.3581,-0.3593,-0.3627,-0.3608,-0.3615,-0.3547,-0.3593,-0.3593,-0.3598,-0.3644,-0.3661,-0.365,-0.3736,-0.3783,-0.3795,-0.3918,-0.3904,-0.3905,-0.388,-0.3923,-0.3927,-0.393,-0.3892,-0.3892,-0.3892,0,0,-0.3632,-0.3746,-0.367,-0.3613,-0.3621,-0.3553,-0.3515,-0.3546,-0.3536,-0.3567,-0.3593,-0.3627,-0.3629,-0.3696,-0.3752,-0.3872,-0.3878,-0.3906,-0.3906,-0.3906,-0.3883,-0.3924,-0.3928,-0.3893,-0.3893,-0.3893,0,0,-0.361,-0.3643,-0.3635,-0.3568,-0.3548,-0.3446,-0.343,-0.3392,-0.3464,-0.3515,-0.3492,-0.3518,-0.3609,-0.3658,-0.3659,-0.3777,-0.3767,-0.3772,-0.3783,-0.3784,-0.3784,-0.3737,-0.3699,0,0,0,0,0,-0.3682,-0.3652,-0.3645,-0.361,-0.3496,-0.3458,-0.3451,-0.3374,-0.3322,-0.3402,-0.3412,-0.3463,-0.3639,-0.3642,-0.3679,-0.373,-0.3906,-0.3904,-0.3902,-0.394,-0.394,-0.394,0,0,0,0,0,0,-0.3667,-0.3638,-0.3639,-0.3526,-0.349,-0.3461,-0.3371,-0.3361,-0.3318,-0.3319,-0.3445,-0.3466,-0.3512,-0.3631,-0.3662,-0.3709,-0.3689,-0.3905,-0.3903,-0.3901,-0.394,-0.394,-0.394,0,0,0,0,0,-0.3654,-0.3629,-0.3472,-0.3527,-0.3498,-0.3363,-0.3376,-0.3365,-0.3405,-0.3401,-0.3421,-0.3334,-0.3511,-0.3543,-0.365,-0.3693,-0.3668,-0.3679,-0.3904,-0.3902,-0.3901,-0.394,0,0,0,0,0,0,-0.3643,-0.371,-0.3465,-0.3448,-0.3503,-0.3372,-0.336,-0.3369,-0.3501,-0.3501,-0.3291,-0.3291,-0.3512,-0.3536,-0.356,-0.3682,-0.3651,-0.3662,-0.3669,-0.3903,-0.3901,-0.39,0,0,0,0,0,0,-0.3715,-0.3701,-0.346,-0.3435,-0.3419,-0.3379,-0.3368,-0.3489,-0.3513,-0.3403,-0.3392,-0.329,-0.3496,-0.3532,-0.3551,-0.3741,-0.3638,-0.3649,-0.3656,-0.3661,-0.3902,-0.3901,0,0,0,0,0,0,-0.3706,-0.3694,-0.3444,-0.3431,-0.3418,-0.3282,-0.3498,-0.3438,-0.3322,-0.3411,-0.3317,-0.3315,-0.3492,-0.3511,-0.3544,-0.3726,-0.3737,-0.3638,-0.3645,-0.3651,-0.3654,0,0,0,0,0,0,0,-0.3699,-0.3815,-0.3488,-0.3428,-0.3417,-0.3286,-0.3289,-0.3291,-0.3321,-0.3319,-0.3317,-0.3315,-0.3575,-0.3587,-0.3599,-0.3713,0,0,-0.3637,-0.3642,0,0,0,0,0,0,0,0,-0.3816,-0.3815,-0.3487,-0.348,-0.3473,-0.3286,-0.3289,-0.3291,-0.3321,-0.3319,-0.3318,-0.3316,-0.3578,-0.3588,-0.3598,0,0,0,0,0,0,0,0,0,0,0,0,0,0,0,-0.3487,-0.3481,0,-0.3287,-0.3288,-0.329,-0.332,-0.3319,-0.3318,-0.3317,-0.3581,-0.3589,-0.3597,0,0,0,0,0,0,0,0,0,0,0,0,0,0,0,0,0,0,0,0,0,0,0,0,0,0,0,0,0,0,0,0,0,0,0,0,0,0,0,0,0,0,0,0,0,0,0,0,0,0,0,0,0,0,0,0,0,0,0,0,0,0,0,0,0,0,0,0,0]}]],[[{"header":{"parameterUnit":"kt","parameterCategory":2,"dx":1,"dy":1,"la1":30.253999710083008,"la2":30.299108505249023,"lo1":-89.0895004272461,"lo2":-89.04439544677734,"nx":28,"ny":28,"refTime":"2022-09-21T09:00:00:Z","depth":"2","parameterNumber":2,"parameterNumberName":"U-component_of_CURRENTS"},"data":[0.0926,0.0966,0.0988,0.1019,0.1078,0.1082,0.113,0.1152,0.1194,0.1145,0.1079,0.1054,0.1003,0.0842,0.0879,0.0976,0.107,0.1005,0.1576,0.1028,0.1044,0.1036,0.0796,0,0,0,0,0,0.0892,0.0949,0.1016,0.1096,0.1113,0.1182,0.1269,0.1293,0.1376,0.1484,0.1585,0.1254,0.1207,0.1264,0.144,0.1597,0.1445,0.1517,0.1061,0.1071,0.1083,0.0928,0.0965,0.0967,0.0969,0.097,0,0,0.0952,0.095,0.104,0.1093,0.1166,0.1216,0.1282,0.1374,0.1508,0.1675,0.1815,0.1821,0.1676,0.1783,0.1864,0.2001,0.2044,0.1697,0.1682,0.1675,0.1565,0.1518,0.1763,0.1768,0.1772,0.1776,0.178,0,0.0942,0.0973,0.1043,0.112,0.1201,0.1256,0.1346,0.1468,0.1578,0.1754,0.1907,0.1985,0.2221,0.2047,0.2223,0.2126,0.181,0.1838,0.2191,0.1033,0.0962,0.092,0.0901,0.1122,0.1124,0.1125,0.1126,0.1127,0.0883,0.0964,0.1057,0.1117,0.1154,0.1232,0.1282,0.1411,0.1463,0.1742,0.1783,0.2015,0.2037,0.2218,0.2172,0.2179,0.2038,0.1856,0.1565,0.1785,0.1757,0.1712,0.1672,0.1146,0.1144,0.1142,0.114,0,0.0865,0.0877,0.1001,0.1073,0.1116,0.1143,0.1317,0.134,0.1465,0.1582,0.1633,0.1727,0.1819,0.174,0.1748,0.1701,0.1724,0.1778,0.132,0.1287,0.1642,0.1611,0.2064,0.2073,0.2081,0.2088,0.2094,0,0.0704,0.0848,0.0778,0.0904,0.1011,0.106,0.1192,0.1178,0.1266,0.1327,0.1284,0.1391,0.1285,0.1351,0.1229,0.1368,0.1348,0.1302,0.1323,0.0894,0.0871,0.0901,0.0869,0.1149,0.1147,0.1144,0.1142,0,0.0495,0.0611,0.0726,0.0802,0.0867,0.097,0.0966,0.0967,0.1016,0.1021,0.1114,0.1094,0.1152,0.1127,0.1044,0.0924,0.1156,0.0987,0.1177,0.1188,0.0862,0.0838,0.1139,0.1139,0.1138,0.1137,0.1136,0,0.031,0.0329,0.0501,0.0645,0.0693,0.0756,0.0857,0.0849,0.0797,0.0808,0.0819,0.0732,0.078,0.0618,0.0718,0.0625,0.0645,0.0607,0.0618,0.0771,0.0674,0.0537,0.0729,0.0703,0.0698,0.0694,0.0691,0,0.018,0.0233,0.0208,0.0402,0.0493,0.0516,0.052,0.055,0.0496,0.0469,0.041,0.0404,0.0255,0.0288,0.0306,0.0293,0.0391,0.0221,0.043,0.0438,0.0576,0.0833,0.0399,0.0667,0.0637,0.0642,0.0646,0,0.0034,-0.003,0.0023,0.0085,0.0164,0.0224,0.0256,0.0295,0.0338,0.0225,0.0318,0.0189,0.0164,0.0148,0.0087,0.012,0.0299,0.0073,0.0075,0.0202,0.0565,0.0735,0.0788,0.027,0.0275,0.028,0.0604,0,-0.0149,-0.0069,-0.0041,-0.0101,-0.002,0.0124,0.008,0.0076,0.0069,0.0026,0.0059,-0.0084,-0.0081,-0.0122,-0.0191,-0.0059,-0.0047,-0.0113,-0.0153,-0.0034,0.0089,0.0123,-0.0309,-0.0311,-0.0313,-0.0314,0,0,-0.0187,-0.0217,-0.0338,-0.03,-0.0192,-0.0211,-0.0066,-0.0125,-0.0107,-0.0079,-0.0172,-0.0224,-0.0285,-0.0238,-0.0281,-0.0301,-0.0229,-0.0294,-0.0112,-0.009,-0.0069,0.0055,0.0089,-0.0317,-0.0318,-0.0319,-0.0319,0,-0.0332,-0.0344,-0.0385,-0.0337,-0.027,-0.0307,-0.02,-0.0185,-0.019,-0.0171,-0.0257,-0.0253,-0.0333,-0.0413,-0.0431,-0.0332,-0.0317,-0.0335,-0.0227,-0.0131,-0.0107,-0.0085,0.0042,0.0074,-0.0323,-0.0323,-0.0323,0,-0.0443,-0.0501,-0.0519,-0.0496,-0.0485,-0.0442,-0.0431,-0.0301,-0.026,-0.0357,-0.0386,-0.0439,-0.0498,-0.0547,-0.0526,-0.0552,-0.0379,-0.0483,-0.0474,-0.044,-0.0343,-0.0316,-0.0291,-0.0605,-0.0606,-0.0606,0,0,-0.054,-0.0611,-0.0584,-0.0511,-0.0492,-0.0451,-0.0399,-0.0372,-0.037,-0.0361,-0.0448,-0.0495,-0.0526,-0.0521,-0.0601,-0.0548,-0.0502,-0.0516,-0.0502,-0.0491,-0.0452,-0.0353,-0.0327,-0.0609,-0.0609,-0.0609,0,0,-0.0571,-0.0667,-0.067,-0.0603,-0.0551,-0.0576,-0.0529,-0.0454,-0.0455,-0.0433,-0.0545,-0.0566,-0.0536,-0.0571,-0.0601,-0.0614,-0.0671,-0.0664,-0.0601,-0.0585,-0.0572,-0.0529,-0.0758,0,0,0,0,0,-0.0723,-0.0663,-0.0664,-0.0648,-0.0629,-0.0566,-0.0566,-0.0591,-0.0525,-0.0481,-0.0543,-0.0589,-0.0685,-0.0717,-0.0715,-0.0669,-0.0646,-0.064,-0.0633,-0.0541,-0.0524,-0.0509,0,0,0,0,0,0,-0.0717,-0.0704,-0.0664,-0.0683,-0.0675,-0.0574,-0.0678,-0.0688,-0.0537,-0.0542,-0.0585,-0.0599,-0.0758,-0.072,-0.0718,-0.0673,-0.0759,-0.0644,-0.0638,-0.0633,-0.0535,-0.0521,-0.0509,0,0,0,0,0,-0.0712,-0.0701,-0.066,-0.0686,-0.0679,-0.0682,-0.0682,-0.069,-0.0568,-0.0712,-0.072,-0.0559,-0.0757,-0.0757,-0.0719,-0.0672,-0.076,-0.076,-0.064,-0.0636,-0.0632,-0.0528,0,0,0,0,0,0,-0.0708,-0.0759,-0.066,-0.0658,-0.0691,-0.0689,-0.0693,-0.0692,-0.0748,-0.075,-0.0711,-0.0717,-0.0756,-0.0756,-0.0755,-0.067,-0.0762,-0.0761,-0.076,-0.0637,-0.0633,-0.063,0,0,0,0,0,0,-0.0762,-0.0759,-0.0661,-0.0667,-0.0668,-0.0694,-0.0697,-0.0681,-0.0748,-0.0752,-0.0754,-0.0712,-0.0723,-0.0755,-0.0755,-0.0733,-0.0763,-0.0762,-0.0761,-0.0761,-0.0634,-0.0631,0,0,0,0,0,0,-0.0761,-0.0758,-0.0671,-0.0671,-0.0672,-0.0673,-0.0682,-0.066,-0.0755,-0.0752,-0.0758,-0.076,-0.0719,-0.0722,-0.0754,-0.0733,-0.0733,-0.0763,-0.0762,-0.0762,-0.0762,0,0,0,0,0,0,0,-0.076,-0.0773,-0.0638,-0.0673,-0.0675,-0.063,-0.0633,-0.0636,-0.0755,-0.0757,-0.0758,-0.0759,-0.0767,-0.0767,-0.0766,-0.0732,0,0,-0.0763,-0.0762,0,0,0,0,0,0,0,0,-0.0774,-0.0773,-0.0637,-0.0635,-0.0632,-0.063,-0.0633,-0.0635,-0.0755,-0.0757,-0.0758,-0.0759,-0.0767,-0.0767,-0.0766,0,0,0,0,0,0,0,0,0,0,0,0,0,0,0,-0.0637,-0.0635,0,-0.063,-0.0632,-0.0634,-0.0756,-0.0756,-0.0757,-0.0758,-0.0767,-0.0766,-0.0766,0,0,0,0,0,0,0,0,0,0,0,0,0,0,0,0,0,0,0,0,0,0,0,0,0,0,0,0,0,0,0,0,0,0,0,0,0,0,0,0,0,0,0,0,0,0,0,0,0,0,0,0,0,0,0,0,0,0,0,0,0,0,0,0,0,0,0,0,0]}],[{"header":{"parameterUnit":"kt","parameterCategory":2,"dx":1,"dy":1,"la1":30.253999710083008,"la2":30.299108505249023,"lo1":-89.0895004272461,"lo2":-89.04439544677734,"nx":28,"ny":28,"refTime":"2022-09-21T09:00:00:Z","depth":"2","parameterNumber":3,"parameterNumberName":"V-component_of_CURRENTS"},"data":[0.0235,0.0271,0.0293,0.0404,0.0379,0.0561,0.0558,0.0717,0.0739,0.0842,0.0917,0.1053,0.0996,0.0688,0.057,0.0464,0.0423,0.046,0.0534,0.0585,0.0576,0.0509,0.06,0,0,0,0,0,0.0421,0.0417,0.0328,0.0211,0.0478,0.0398,0.0606,0.07,0.0742,0.0798,0.0934,0.0969,0.0953,0.0815,0.0556,0.0429,0.0439,0.0361,0.0389,0.0386,0.0381,0.0433,0.0424,0.0422,0.0419,0.0417,0,0,0.038,0.0353,0.0419,0.0255,0.0337,0.0482,0.0503,0.0654,0.064,0.0645,0.0859,0.117,0.1057,0.078,0.0635,0.0432,0.0481,0.0408,0.0406,0.0402,0.0457,0.0563,0.0455,0.0454,0.0453,0.0452,0.0451,0,0.0451,0.0451,0.0512,0.0337,0.0396,0.0499,0.0571,0.0465,0.0546,0.0621,0.0784,0.0998,0.0993,0.0922,0.0624,0.0595,0.0416,0.0379,0.0274,0.0462,0.0574,0.0552,0.056,0.0453,0.0451,0.045,0.045,0.0449,0.0544,0.0472,0.0493,0.0381,0.045,0.0426,0.0564,0.0512,0.0585,0.0639,0.0712,0.0724,0.0951,0.0783,0.0589,0.0437,0.0356,0.0357,0.0373,0.0386,0.0359,0.0375,0.0391,0.0436,0.0438,0.0439,0.044,0,0.0598,0.0547,0.046,0.0571,0.0599,0.0536,0.0533,0.0716,0.0585,0.0641,0.0632,0.0788,0.0789,0.0716,0.051,0.0472,0.0383,0.0315,0.0496,0.0474,0.0382,0.0398,0.0229,0.0229,0.0229,0.0229,0.0229,0,0.0783,0.066,0.0825,0.0788,0.0692,0.0733,0.0743,0.0756,0.0745,0.0783,0.0938,0.1003,0.0802,0.0784,0.0733,0.0578,0.052,0.0454,0.041,0.0504,0.0519,0.047,0.0487,0.0335,0.0336,0.0337,0.0338,0,0.1123,0.0956,0.0862,0.0767,0.0822,0.083,0.0881,0.0971,0.0933,0.1056,0.1078,0.1015,0.0901,0.081,0.0746,0.0747,0.0558,0.053,0.0454,0.0458,0.0513,0.0528,0.0339,0.0339,0.0339,0.0339,0.034,0,0.1319,0.1299,0.11,0.1015,0.098,0.1037,0.1086,0.1095,0.1238,0.1204,0.117,0.1223,0.1108,0.1082,0.0867,0.0908,0.078,0.0703,0.0694,0.0741,0.0726,0.0751,0.0632,0.0626,0.0628,0.063,0.0632,0,0.1429,0.1355,0.1463,0.1319,0.1181,0.1175,0.1224,0.124,0.1332,0.1465,0.1349,0.1319,0.1284,0.1157,0.108,0.095,0.0849,0.0939,0.0726,0.0723,0.0791,0.0659,0.0752,0.0664,0.066,0.0657,0.0655,0,0.1591,0.1696,0.1616,0.1578,0.1422,0.1443,0.1438,0.1427,0.1429,0.1468,0.1407,0.1332,0.1286,0.1227,0.1129,0.104,0.0902,0.0989,0.0983,0.0983,0.0658,0.0696,0.0681,0.0793,0.079,0.0787,0.0678,0,0.1719,0.1626,0.1619,0.176,0.1695,0.145,0.151,0.1546,0.1484,0.1503,0.1377,0.1396,0.132,0.1263,0.1231,0.1071,0.1062,0.1022,0.1065,0.097,0.0937,0.0919,0.1141,0.1142,0.1143,0.1143,0,0,0.1604,0.1753,0.1962,0.1926,0.1759,0.1711,0.1531,0.16,0.1488,0.1444,0.1463,0.1376,0.1333,0.1205,0.124,0.1196,0.1135,0.1214,0.1017,0.1003,0.099,0.0953,0.0936,0.1145,0.1145,0.1145,0.1145,0,0.179,0.1856,0.2012,0.1912,0.177,0.1809,0.1644,0.1554,0.1513,0.1451,0.1426,0.1318,0.1333,0.1368,0.1321,0.1214,0.1182,0.1155,0.1151,0.1026,0.1011,0.0998,0.0959,0.0943,0.1147,0.1147,0.1147,0,0.1827,0.193,0.2017,0.2015,0.1972,0.1935,0.1786,0.1566,0.1511,0.1475,0.1525,0.147,0.1422,0.1449,0.1387,0.1408,0.1233,0.1288,0.1282,0.1323,0.1198,0.118,0.1164,0.1372,0.1373,0.1374,0,0,0.1908,0.2109,0.2034,0.2014,0.1978,0.1838,0.1747,0.1625,0.1542,0.1489,0.1548,0.1513,0.146,0.1411,0.1463,0.1378,0.1358,0.1318,0.1307,0.1299,0.1334,0.1208,0.1191,0.1377,0.1378,0.1378,0,0,0.1896,0.2063,0.2056,0.2058,0.1955,0.1916,0.1863,0.1677,0.1605,0.1524,0.1571,0.1571,0.1462,0.1465,0.1514,0.1464,0.1504,0.1492,0.1491,0.1477,0.1467,0.1528,0.1649,0,0,0,0,0,0.2059,0.2068,0.2062,0.2049,0.2038,0.1936,0.1928,0.1867,0.1688,0.164,0.161,0.1613,0.1595,0.1643,0.1629,0.1565,0.1426,0.1417,0.1409,0.1386,0.1372,0.136,0,0,0,0,0,0,0.2054,0.2052,0.2056,0.2029,0.2017,0.1944,0.1975,0.1966,0.1702,0.1689,0.1632,0.1626,0.1781,0.165,0.1637,0.1576,0.1654,0.1422,0.1415,0.1409,0.1382,0.137,0.136,0,0,0,0,0,0.2048,0.2046,0.2054,0.2028,0.2019,0.1918,0.1976,0.1967,0.1746,0.1847,0.1831,0.1652,0.1785,0.1765,0.1642,0.1581,0.1662,0.1658,0.1418,0.1412,0.1407,0.1376,0,0,0,0,0,0,0.2043,0.2105,0.205,0.204,0.1985,0.1918,0.1918,0.1968,0.1918,0.1896,0.1901,0.1896,0.1789,0.1773,0.1758,0.1583,0.1669,0.1665,0.1662,0.1413,0.1409,0.1405,0,0,0,0,0,0,0.2099,0.2101,0.2047,0.1999,0.1986,0.1918,0.1917,0.1877,0.1916,0.1986,0.1974,0.1898,0.1733,0.1779,0.1766,0.1715,0.1675,0.167,0.1667,0.1665,0.141,0.1406,0,0,0,0,0,0,0.2097,0.2098,0.2006,0.1995,0.1984,0.1905,0.1878,0.1853,0.1928,0.1992,0.1918,0.1914,0.1734,0.1726,0.1773,0.1727,0.1718,0.1675,0.1672,0.1669,0.1668,0,0,0,0,0,0,0,0.2095,0.2124,0.2052,0.1992,0.1982,0.1935,0.1938,0.1941,0.1927,0.1923,0.192,0.1916,0.1701,0.1696,0.1691,0.1738,0,0,0.1675,0.1673,0,0,0,0,0,0,0,0,0.2119,0.2123,0.2052,0.2046,0.2041,0.1936,0.1938,0.194,0.1927,0.1924,0.192,0.1917,0.17,0.1696,0.1691,0,0,0,0,0,0,0,0,0,0,0,0,0,0,0,0.2051,0.2047,0,0.1936,0.1938,0.194,0.1926,0.1924,0.1921,0.1919,0.1698,0.1695,0.1692,0,0,0,0,0,0,0,0,0,0,0,0,0,0,0,0,0,0,0,0,0,0,0,0,0,0,0,0,0,0,0,0,0,0,0,0,0,0,0,0,0,0,0,0,0,0,0,0,0,0,0,0,0,0,0,0,0,0,0,0,0,0,0,0,0,0,0,0,0]}]],[[{"header":{"parameterUnit":"kt","parameterCategory":2,"dx":1,"dy":1,"la1":30.253999710083008,"la2":30.299108505249023,"lo1":-89.0895004272461,"lo2":-89.04439544677734,"nx":28,"ny":28,"refTime":"2022-09-21T09:00:00:Z","depth":"4","parameterNumber":2,"parameterNumberName":"U-component_of_CURRENTS"},"data":[-0.037,-0.0339,-0.0307,-0.0141,-0.0057,0.0042,0.0068,0.0063,0.0146,0.012,0.0088,0.0054,-0.0024,-0.0024,-0.0101,-0.0124,-0.0495,-0.0291,-0.029,-0.0994,-0.1037,-0.1075,-0.1182,0,0,0,0,0,-0.0397,-0.0361,-0.0324,-0.0235,-0.0161,-0.0143,-0.009,-0.0139,-0.0145,0.0032,-0.01,0.0019,-0.0045,-0.0105,-0.0115,-0.0226,-0.0626,-0.0239,-0.0837,-0.1021,-0.1068,-0.1157,0,0,0,0,0,0,-0.0421,-0.0397,-0.0373,-0.0343,-0.03,-0.0206,-0.0283,-0.021,-0.0249,-0.0295,-0.0146,-0.0236,-0.0317,-0.0383,-0.0312,-0.0367,-0.0592,-0.0742,-0.0801,-0.0848,-0.0865,-0.053,-0.0103,0,0,0,0,0,-0.0425,-0.0434,-0.0428,-0.0391,-0.0426,-0.0409,-0.0499,-0.0475,-0.0619,-0.0723,-0.0565,-0.0626,-0.0497,-0.0677,-0.0597,-0.0695,-0.1254,-0.1039,-0.1076,-0.1562,-0.1348,-0.13,-0.132,-0.1247,-0.1253,-0.1257,-0.1259,0,-0.0417,-0.0425,-0.0441,-0.0433,-0.0502,-0.0655,-0.0717,-0.096,-0.0948,-0.1023,-0.094,-0.0995,-0.1068,-0.0886,-0.113,-0.1186,-0.1231,-0.1154,-0.1671,-0.1425,-0.1362,-0.1372,-0.1378,-0.1297,-0.1294,-0.1291,-0.1288,0,-0.0423,-0.0425,-0.0437,-0.0537,-0.0579,-0.0696,-0.0895,-0.0961,-0.1215,-0.1235,-0.1345,-0.152,-0.1523,-0.1628,-0.176,-0.1793,-0.1764,-0.1629,-0.1768,-0.1707,-0.1451,-0.1442,-0.1359,-0.1346,-0.1334,-0.1324,-0.1316,0,-0.0425,-0.0441,-0.0478,-0.0508,-0.0582,-0.0753,-0.0905,-0.1073,-0.1285,-0.1293,-0.1655,-0.1658,-0.208,-0.203,-0.2138,-0.1997,-0.2206,-0.2035,-0.1962,-0.2384,-0.2369,-0.2371,-0.2354,-0.2549,-0.2551,-0.2554,-0.2556,0,-0.0446,-0.0455,-0.0475,-0.0503,-0.061,-0.0722,-0.086,-0.1061,-0.1135,-0.1455,-0.1512,-0.1867,-0.1995,-0.222,-0.2182,-0.2331,-0.2226,-0.2416,-0.2039,-0.1999,-0.2379,-0.2358,-0.2559,-0.2559,-0.256,-0.2561,-0.2562,0,-0.0471,-0.0456,-0.049,-0.0566,-0.0592,-0.0688,-0.0862,-0.0977,-0.1188,-0.1306,-0.1588,-0.1726,-0.1978,-0.2065,-0.2271,-0.2296,-0.2308,-0.2295,-0.2286,-0.1956,-0.1807,-0.1859,-0.1996,-0.1994,-0.1993,-0.1991,-0.199,0,-0.0487,-0.0475,-0.0506,-0.0558,-0.0574,-0.0679,-0.0783,-0.091,-0.1029,-0.1195,-0.139,-0.1595,-0.1713,-0.1873,-0.2037,-0.2089,-0.2148,-0.2142,-0.2143,-0.2135,-0.1798,-0.1867,-0.2303,-0.197,-0.1973,-0.1974,-0.1976,0,-0.0496,-0.0495,-0.0498,-0.0521,-0.0603,-0.0636,-0.0742,-0.0852,-0.0932,-0.1135,-0.1293,-0.1512,-0.1674,-0.1747,-0.1849,-0.1968,-0.2077,-0.2008,-0.2013,-0.1839,-0.2233,-0.1872,-0.1846,-0.2267,-0.2274,-0.228,-0.1962,0,-0.052,-0.0519,-0.0511,-0.0548,-0.0595,-0.0618,-0.0705,-0.079,-0.0886,-0.0964,-0.1195,-0.1334,-0.1544,-0.1567,-0.1603,-0.183,-0.1739,-0.1819,-0.1787,-0.1922,-0.1737,-0.1749,-0.1588,-0.1586,-0.1585,-0.1584,0,0,-0.0541,-0.0521,-0.0529,-0.0538,-0.0575,-0.0624,-0.0661,-0.0695,-0.0826,-0.0899,-0.0946,-0.1237,-0.1299,-0.1473,-0.154,-0.1547,-0.1559,-0.1592,-0.1831,-0.1858,-0.1883,-0.172,-0.1733,-0.1581,-0.1581,-0.158,-0.158,0,-0.0537,-0.0537,-0.0523,-0.0553,-0.0593,-0.0614,-0.0638,-0.0702,-0.0749,-0.088,-0.0949,-0.1101,-0.125,-0.1337,-0.1388,-0.1516,-0.1512,-0.156,-0.1664,-0.1812,-0.1841,-0.1867,-0.1712,-0.1724,-0.1576,-0.1576,-0.1576,0,-0.0562,-0.056,-0.0562,-0.0578,-0.0593,-0.0622,-0.0631,-0.0652,-0.0703,-0.0767,-0.0897,-0.0996,-0.1076,-0.1216,-0.1287,-0.1264,-0.1452,-0.1413,-0.1421,-0.1452,-0.1604,-0.1637,-0.1666,-0.1298,-0.1297,-0.1296,0,0,-0.0565,-0.0549,-0.0591,-0.0587,-0.0598,-0.0624,-0.0629,-0.0658,-0.0716,-0.074,-0.0846,-0.0945,-0.1038,-0.1112,-0.1192,-0.1307,-0.1299,-0.1379,-0.1392,-0.1403,-0.1439,-0.1593,-0.1624,-0.1293,-0.1292,-0.1292,0,0,-0.0574,-0.059,-0.0622,-0.0604,-0.0644,-0.0645,-0.0634,-0.0661,-0.0721,-0.0743,-0.0822,-0.0853,-0.1006,-0.1034,-0.0983,-0.12,-0.1145,-0.1157,-0.1192,-0.1208,-0.1221,-0.1246,-0.099,0,0,0,0,0,-0.0617,-0.0588,-0.0617,-0.0621,-0.0619,-0.0635,-0.0631,-0.0649,-0.0663,-0.0669,-0.0763,-0.0783,-0.1032,-0.0987,-0.1008,-0.1096,-0.1249,-0.1257,-0.1264,-0.1335,-0.1352,-0.1367,0,0,0,0,0,0,-0.0619,-0.0623,-0.0618,-0.0621,-0.0622,-0.0633,-0.064,-0.0641,-0.0664,-0.067,-0.076,-0.0784,-0.0828,-0.0978,-0.0997,-0.1081,-0.0984,-0.1252,-0.1258,-0.1264,-0.1341,-0.1355,-0.1367,0,0,0,0,0,-0.0621,-0.0624,-0.0625,-0.0619,-0.062,-0.0641,-0.0642,-0.0644,-0.0656,-0.0738,-0.0758,-0.0682,-0.0824,-0.0849,-0.099,-0.1072,-0.0971,-0.0978,-0.1256,-0.1261,-0.1266,-0.1348,0,0,0,0,0,0,-0.0622,-0.0595,-0.0625,-0.0624,-0.065,-0.0642,-0.0643,-0.0645,-0.0726,-0.0742,-0.0664,-0.0668,-0.082,-0.0841,-0.086,-0.1069,-0.0961,-0.0968,-0.0972,-0.126,-0.1264,-0.1268,0,0,0,0,0,0,-0.0595,-0.0595,-0.0624,-0.0662,-0.0665,-0.0642,-0.0644,-0.0708,-0.0732,-0.0646,-0.0651,-0.0666,-0.0863,-0.0835,-0.085,-0.0941,-0.0953,-0.096,-0.0964,-0.0967,-0.1263,-0.1267,0,0,0,0,0,0,-0.0595,-0.0594,-0.0661,-0.0663,-0.0666,-0.0654,-0.0705,-0.0737,-0.065,-0.0645,-0.0658,-0.0662,-0.0861,-0.0873,-0.0843,-0.0926,-0.0938,-0.0953,-0.0958,-0.0961,-0.0963,0,0,0,0,0,0,0,-0.0594,-0.0601,-0.0642,-0.0665,-0.0668,-0.0625,-0.0623,-0.0622,-0.0651,-0.0654,-0.0657,-0.066,-0.0915,-0.0922,-0.093,-0.0914,0,0,-0.0953,-0.0956,0,0,0,0,0,0,0,0,-0.0601,-0.0601,-0.0642,-0.0643,-0.0644,-0.0625,-0.0623,-0.0622,-0.0652,-0.0654,-0.0657,-0.0659,-0.0917,-0.0923,-0.0929,0,0,0,0,0,0,0,0,0,0,0,0,0,0,0,-0.0642,-0.0643,0,-0.0625,-0.0623,-0.0622,-0.0652,-0.0654,-0.0656,-0.0658,-0.0919,-0.0923,-0.0928,0,0,0,0,0,0,0,0,0,0,0,0,0,0,0,0,0,0,0,0,0,0,0,0,0,0,0,0,0,0,0,0,0,0,0,0,0,0,0,0,0,0,0,0,0,0,0,0,0,0,0,0,0,0,0,0,0,0,0,0,0,0,0,0,0,0,0,0,0]}],[{"header":{"parameterUnit":"kt","parameterCategory":2,"dx":1,"dy":1,"la1":30.253999710083008,"la2":30.299108505249023,"lo1":-89.0895004272461,"lo2":-89.04439544677734,"nx":28,"ny":28,"refTime":"2022-09-21T09:00:00:Z","depth":"4","parameterNumber":3,"parameterNumberName":"V-component_of_CURRENTS"},"data":[-0.0503,-0.057,-0.0584,-0.0572,-0.0555,-0.0661,-0.0683,-0.074,-0.0683,-0.0661,-0.0607,-0.0585,-0.0474,-0.0603,-0.0341,-0.0314,-0.0141,-0.0175,-0.017,0.0072,0.0073,0.0073,0.0033,0,0,0,0,0,-0.046,-0.0502,-0.057,-0.0649,-0.0665,-0.0709,-0.0793,-0.0864,-0.0865,-0.0773,-0.0798,-0.0689,-0.0534,-0.0508,-0.0367,-0.0395,-0.0169,-0.0219,-0.001,0.0072,0.0073,0.0034,0,0,0,0,0,0,-0.0435,-0.0509,-0.0571,-0.062,-0.0695,-0.0754,-0.0861,-0.0862,-0.0904,-0.0851,-0.0824,-0.0757,-0.0728,-0.0559,-0.047,-0.0353,-0.0189,-0.0055,-0.0048,-0.0046,-0.0096,-0.027,-0.014,0,0,0,0,0,-0.0396,-0.0436,-0.0536,-0.06,-0.0711,-0.0848,-0.0949,-0.0925,-0.0985,-0.1011,-0.0918,-0.0813,-0.0704,-0.0526,-0.0476,-0.0288,-0.015,-0.013,-0.0122,0.0054,-0.0068,-0.0051,-0.0066,0.0076,0.0076,0.0076,0.0076,0,-0.0361,-0.0393,-0.0563,-0.0617,-0.0703,-0.0867,-0.0958,-0.1078,-0.1082,-0.1084,-0.1024,-0.0916,-0.082,-0.0593,-0.045,-0.0236,-0.0194,-0.0132,0.0053,-0.0069,-0.0049,-0.0064,-0.0079,0.0076,0.0076,0.0076,0.0076,0,-0.0357,-0.04,-0.0518,-0.0695,-0.0759,-0.0886,-0.1052,-0.1127,-0.1149,-0.1129,-0.1059,-0.0971,-0.0769,-0.0684,-0.0423,-0.0298,-0.0131,-0.0104,-0.0297,-0.0273,-0.0069,-0.0085,0.0077,0.0077,0.0077,0.0077,0.0077,0,-0.0369,-0.0447,-0.057,-0.0623,-0.0776,-0.0898,-0.1037,-0.1117,-0.1171,-0.1174,-0.1077,-0.1001,-0.0747,-0.0648,-0.0474,-0.0274,-0.0225,-0.0097,-0.0059,-0.0103,-0.0118,-0.0039,-0.0049,0.004,0.004,0.0039,0.0039,0,-0.0377,-0.0495,-0.056,-0.061,-0.0779,-0.0877,-0.0978,-0.1108,-0.1158,-0.1134,-0.1111,-0.0957,-0.0828,-0.061,-0.0451,-0.0389,-0.0246,-0.0135,-0.0097,-0.0104,-0.0045,-0.0055,0.0038,0.0038,0.0038,0.0038,0.0038,0,-0.0397,-0.046,-0.0537,-0.0697,-0.0734,-0.0825,-0.1,-0.1072,-0.1147,-0.1152,-0.1079,-0.0999,-0.0848,-0.0769,-0.0505,-0.053,-0.0399,-0.0329,-0.0322,-0.03,-0.0292,-0.0323,-0.0292,-0.0294,-0.0296,-0.0299,-0.03,0,-0.0372,-0.0457,-0.0514,-0.0625,-0.0675,-0.0766,-0.0858,-0.0958,-0.1007,-0.1068,-0.1003,-0.0966,-0.088,-0.0806,-0.0704,-0.0564,-0.0489,-0.0572,-0.0294,-0.0289,-0.0328,-0.0293,-0.0387,-0.0332,-0.0328,-0.0325,-0.0323,0,-0.0365,-0.0457,-0.047,-0.0531,-0.0622,-0.0693,-0.0773,-0.0859,-0.0929,-0.0946,-0.099,-0.0932,-0.0862,-0.082,-0.0747,-0.0656,-0.0547,-0.0544,-0.0534,-0.0539,-0.0291,-0.0331,-0.0317,-0.0408,-0.0404,-0.04,-0.0345,0,-0.0388,-0.043,-0.045,-0.0541,-0.0603,-0.064,-0.0712,-0.0783,-0.0822,-0.0858,-0.087,-0.0819,-0.0767,-0.078,-0.0723,-0.0637,-0.061,-0.0541,-0.0493,-0.0479,-0.0467,-0.045,-0.0622,-0.0621,-0.0619,-0.0618,0,0,-0.0347,-0.04,-0.0456,-0.0507,-0.0547,-0.0586,-0.0633,-0.068,-0.0738,-0.0769,-0.0766,-0.0732,-0.0705,-0.0671,-0.0675,-0.0657,-0.0573,-0.0624,-0.0506,-0.0495,-0.0483,-0.0469,-0.0454,-0.0616,-0.0615,-0.0615,-0.0614,0,-0.0358,-0.04,-0.0441,-0.0489,-0.0544,-0.0576,-0.0594,-0.0654,-0.0699,-0.0731,-0.0713,-0.0701,-0.0672,-0.0654,-0.0627,-0.0638,-0.0554,-0.062,-0.0635,-0.05,-0.049,-0.0481,-0.0466,-0.0454,-0.0611,-0.0611,-0.0611,0,-0.0354,-0.0396,-0.0422,-0.0486,-0.0514,-0.0559,-0.0569,-0.0614,-0.0666,-0.0621,-0.0685,-0.0656,-0.0601,-0.0598,-0.0592,-0.0569,-0.0512,-0.0555,-0.056,-0.0544,-0.0401,-0.0391,-0.0382,-0.0488,-0.0489,-0.0489,0,0,-0.0363,-0.0414,-0.0456,-0.0486,-0.0502,-0.0545,-0.057,-0.0608,-0.0625,-0.0643,-0.065,-0.0628,-0.0602,-0.0588,-0.0571,-0.0542,-0.0476,-0.0545,-0.0551,-0.0556,-0.0543,-0.0402,-0.0393,-0.0489,-0.0489,-0.0489,0,0,-0.0362,-0.0426,-0.0444,-0.0478,-0.0523,-0.0563,-0.0586,-0.0616,-0.0641,-0.0642,-0.0624,-0.0619,-0.0621,-0.058,-0.0587,-0.0568,-0.0538,-0.0535,-0.061,-0.0617,-0.0622,-0.0619,-0.0574,0,0,0,0,0,-0.0393,-0.0413,-0.0429,-0.0438,-0.0499,-0.0546,-0.0556,-0.0607,-0.0618,-0.0657,-0.0645,-0.0632,-0.0588,-0.0593,-0.0582,-0.06,-0.0492,-0.0491,-0.0491,-0.0581,-0.0588,-0.0594,0,0,0,0,0,0,-0.0397,-0.0408,-0.0428,-0.0463,-0.0476,-0.0545,-0.0559,-0.0574,-0.0618,-0.0628,-0.0633,-0.063,-0.0617,-0.0597,-0.0587,-0.0606,-0.0577,-0.0491,-0.0491,-0.0491,-0.0584,-0.059,-0.0595,0,0,0,0,0,-0.04,-0.0409,-0.0499,-0.0463,-0.0475,-0.0537,-0.0561,-0.0574,-0.0624,-0.0599,-0.0603,-0.0665,-0.0616,-0.0608,-0.0591,-0.0612,-0.0584,-0.058,-0.0491,-0.0491,-0.0491,-0.0587,0,0,0,0,0,0,-0.0402,-0.0426,-0.0502,-0.0507,-0.0477,-0.0538,-0.0552,-0.0574,-0.0594,-0.0599,-0.0625,-0.0631,-0.0615,-0.0609,-0.0603,-0.0617,-0.0589,-0.0585,-0.0583,-0.0491,-0.0491,-0.049,0,0,0,0,0,0,-0.0421,-0.043,-0.0505,-0.0519,-0.0526,-0.0538,-0.055,-0.0506,-0.059,-0.0619,-0.0626,-0.0627,-0.0591,-0.0609,-0.0604,-0.0537,-0.0593,-0.059,-0.0587,-0.0586,-0.0491,-0.049,0,0,0,0,0,0,-0.0426,-0.0434,-0.0518,-0.0524,-0.053,-0.0592,-0.0496,-0.0541,-0.0657,-0.0615,-0.0662,-0.0664,-0.0587,-0.0586,-0.0605,-0.054,-0.0538,-0.0593,-0.0591,-0.0589,-0.0588,0,0,0,0,0,0,0,-0.0429,-0.0368,-0.0468,-0.0528,-0.0534,-0.0549,-0.0551,-0.0553,-0.0657,-0.0659,-0.0661,-0.0663,-0.0613,-0.0609,-0.0605,-0.0542,0,0,-0.0593,-0.0592,0,0,0,0,0,0,0,0,-0.0366,-0.0368,-0.0468,-0.0468,-0.0469,-0.055,-0.0551,-0.0553,-0.0658,-0.0659,-0.0661,-0.0662,-0.0612,-0.0609,-0.0606,0,0,0,0,0,0,0,0,0,0,0,0,0,0,0,-0.0468,-0.0468,0,-0.055,-0.0551,-0.0552,-0.0658,-0.0659,-0.066,-0.0662,-0.0611,-0.0608,-0.0606,0,0,0,0,0,0,0,0,0,0,0,0,0,0,0,0,0,0,0,0,0,0,0,0,0,0,0,0,0,0,0,0,0,0,0,0,0,0,0,0,0,0,0,0,0,0,0,0,0,0,0,0,0,0,0,0,0,0,0,0,0,0,0,0,0,0,0,0,0]}]]]